Location: Mount Tamalpais State Park
(37.9108°N, 122.6128°W)
Time: 21:50:59
(UTC-07:00)

Daily predictions for brighter satellites

Satellite Brightness Start Highest point End
(mag) Time Altitude Azimuth Time Altitude Azimuth Time Altitude Azimuth
Meteor 1-29 4.4 20:52:24 10° NE 20:55:02 20° E 20:57:39 10° SE
Cosmos 1937 Rocket 3.6 20:51:13 10° S 20:56:12 54° ESE 21:01:13 10° NNE
USA 186 1.4 20:56:13 10° S 20:58:45 79° W 21:01:30 10° NNW
Cosmos 2298 Rocket 4.0 20:54:48 10° S 21:00:02 66° ESE 21:05:17 10° NNE
Cosmos 2150 Rocket 4.1 20:54:51 10° S 21:00:07 58° ESE 21:05:21 10° NNE
OAO 2 Rocket 3.7 20:58:04 10° W 21:02:58 50° SSW 21:07:45 10° ESE
Lacrosse 5 rocket 2.3 21:03:50 10° S 21:06:30 20° ESE 21:09:12 10° ENE
ATLAS 3B R/B 4.4 21:00:08 10° WSW 21:07:03 40° NW 21:13:44 10° NNE
Cosmos 1939 Rocket 3.0 21:04:33 10° SSE 21:08:38 60° ENE 21:12:43 10° N
Cosmos 1943 Rocket 3.6 21:07:06 10° SE 21:10:39 17° E 21:14:11 10° ENE
Cosmos 1933 3.3 21:07:26 10° N 21:11:28 90° WSW 21:15:28 10° S
CZ-4B DEB 3.7 21:09:44 11° SE 21:12:03 26° ENE 21:14:35 10° NNE
Cosmos 1346 Rocket 3.4 21:10:37 10° N 21:14:22 40° ENE 21:18:00 11° SSE
Tsikada Rocket 4.0 21:08:47 10° S 21:15:02 87° E 21:21:15 10° N
Cosmos 2369 Rocket 2.5 21:19:14 10° S 21:24:32 44° ESE 21:29:54 10° NE
Shenzhou-11 Module 2.5 21:23:01 10° WNW 21:26:02 55° NNE 21:28:25 15° E
ERS-1 Rocket 3.6 21:23:21 13° SE 21:27:27 40° ENE 21:32:09 10° N
SL-19 R/B 4.5 21:23:18 10° SSE 21:28:58 85° WSW 21:35:02 10° NNW
Cosmos 1634 Rocket 4.1 21:32:21 10° N 21:38:37 63° E 21:44:16 13° SSE
Helios 1B rocket 2.6 21:35:33 10° N 21:39:40 77° WNW 21:43:45 10° SSW
SAR-Lupe-4 3.5 21:41:07 19° SSE 21:43:36 73° ENE 21:47:11 10° N
Resurs 01 Rocket 4.1 21:41:42 10° SW 21:44:58 20° W 21:48:15 10° NW
Hubble Space Telescope 3.0 21:43:41 10° SW 21:45:04 11° SSW 21:46:15 10° S
EO 1 Delta rocket 4.4 21:41:05 11° SSE 21:46:16 85° ENE 21:53:05 10° N
YAOGAN 6 3.1 21:44:57 12° S 21:48:22 60° W 21:52:02 10° NNW
Cosmos 1782 3.5 21:45:24 10° N 21:49:07 36° ENE 21:50:38 26° ESE
Lacrosse 4 Rocket 3.6 21:47:15 10° NNE 21:49:58 16° NE 21:52:03 12° E
TIMED 4.4 21:47:36 10° S 21:51:57 75° ESE 21:56:19 10° NNE
ATLAS 5 CENTAUR R/B 3.6 21:50:17 10° NNW 21:55:27 29° NE 21:59:24 16° E
USA 215 3.4 21:51:26 19° ESE 21:56:13 67° NE 22:02:43 10° NW
Meteor 2-3 Rocket 4.4 21:53:43 10° SSW 21:59:21 58° W 22:04:57 10° N
GPS 2-04 Rocket1 2.4 21:58:17 10° WSW 22:01:54 60° S 22:02:54 40° ESE
MetOp-B 4.1 21:58:54 23° SSE 22:02:20 71° ENE 22:07:41 10° N
Helios 1A 4.2 21:59:33 10° SSW 22:03:26 38° W 22:07:21 10° NNW
H-2A ROCKET BODY 3.1 22:00:48 10° SW 22:03:49 27° S 22:05:19 24° SSE
SAR-Lupe-1 4.3 22:03:05 25° S 22:04:59 68° WSW 22:08:33 10° NNW
Cosmos 1862 4.1 22:04:58 30° E 22:05:17 31° E 22:08:49 10° NNE
ISS -3.3 22:02:16 10° WSW 22:05:28 59° NW 22:08:41 10° NE
Cosmos 372 Rocket 4.1 22:02:49 19° S 22:06:22 52° ESE 22:11:20 10° NNE
Cosmos 1125 Rocket 3.4 22:02:44 10° S 22:07:55 67° ESE 22:13:07 10° NNE
Aureole 3 2.8 22:07:55 28° SSW 22:09:25 74° W 22:12:23 10° N
ARGOS 3.1 22:06:37 27° SSE 22:09:36 68° ENE 22:14:56 10° N
Cosmos 1825 2.0 22:12:50 36° S 22:14:16 77° E 22:18:03 10° N
Cosmos 2279 Rocket 4.0 22:08:29 10° N 22:14:45 71° E 22:18:18 27° SSE
Cosmos 1408 2.5 22:14:52 34° S 22:16:23 90° S 22:20:08 10° N
SL-08 RB Rocket 3.7 22:19:14 38° SSE 22:20:57 70° ENE 22:25:36 10° N
Tiangong 2 1.1 22:21:30 10° WNW 22:24:35 74° SW 22:24:35 74° SW
Terra 3.0 22:24:15 26° E 22:25:04 27° ENE 22:29:04 10° NNE
CENTAUR R/B 2.4 22:19:49 10° SSW 22:25:44 89° ESE 22:32:30 10° NNE
H-2A R/B 2.2 22:24:59 37° SE 22:27:05 65° ENE 22:32:24 10° N
Okean 1-7 3.5 22:23:13 10° NNW 22:27:35 60° W 22:29:38 29° SSW
Cosmos 2180 Rocket 4.5 22:21:27 10° N 22:27:52 75° E 22:30:56 33° SSE
COSMOS 2455 3.8 22:23:08 10° SW 22:28:56 49° WNW 22:34:47 10° NNE
SPOT 5 3.1 22:28:31 34° SSE 22:30:55 88° WSW 22:36:17 10° NNW
Cosmos 1733 Rocket 2.8 22:44:03 70° SE 22:44:21 74° E 22:48:40 10° N
Lacrosse 5 rocket 2.8 22:42:12 10° WSW 22:45:28 32° NW 22:48:49 10° NNE
DNEPR-1 R/B 4.4 22:40:43 10° SW 22:46:00 59° WNW 22:50:30 10° NNE
deb Kosmos-1763 4.1 22:45:00 10° NNW 22:48:36 78° WNW 22:48:36 78° WNW
Cosmos 1340 3.0 22:49:06 10° NNW 22:52:50 57° W 22:52:55 57° WSW
Cosmos 1943 Rocket 2.7 22:48:21 10° SW 22:53:51 57° WNW 22:59:20 10° NNE
Cosmos 158 Rocket 4.0 22:52:00 10° NNW 22:56:50 63° WSW 22:57:43 52° SSW
Milstar 3 3.4 22:49:10 10° WSW 22:58:17 40° S 22:58:49 39° SSE
Cosmos 1606 4.3 22:57:11 10° NNW 23:00:25 27° W 23:01:09 25° WSW
BREEZE-M DEB (TANK) 4.1 22:59:57 10° NW 23:04:01 65° NE 23:13:37 22° ESE
Cosmos 2369 Rocket 4.3 23:04:06 10° WSW 23:08:43 25° WNW 23:13:24 10° N
Cosmos 2026 Rocket 4.3 23:10:04 45° E 23:10:20 45° E 23:16:13 10° NNE
Cosmos 1833 4.1 23:05:58 10° NNW 23:11:47 83° WSW 23:12:38 65° S
DMSP B5D2-2 4.3 23:07:34 10° N 23:12:44 65° WNW 23:14:20 43° SW
Cosmos 2344 3.8 23:05:33 10° SW 23:13:10 72° NW 23:21:36 10° NNE
CARTOSAT-1 3.7 23:16:33 72° NNW 23:16:33 72° NNW 23:20:29 10° NNW
Meteor 2-20 4.4 23:14:40 53° SSW 23:16:14 86° W 23:22:23 10° N
Meteor 2-20 Rocket 4.3 23:15:41 63° SSE 23:16:35 74° E 23:22:43 10° N
Meteor 1-27 Rocket 4.3 23:12:56 10° NNW 23:18:30 50° W 23:20:01 40° SW
Cosmos 1674 Rocket 3.9 23:18:36 10° NNW 23:22:26 60° WNW 23:22:26 60° WNW
SME Rocket 4.2 23:23:01 58° SE 23:24:17 72° ENE 23:33:00 10° NNW
GEOS 3 Rocket 3.5 23:24:47 77° SW 23:24:56 77° WSW 23:30:10 10° NW
Cosmos 1378 Rocket 4.1 23:20:39 10° N 23:24:12 53° NNE 23:24:12 53° NNE
Cosmos 2251 Rocket 3.7 23:23:01 10° N 23:28:00 60° ENE 23:28:00 60° ENE
Cosmos 2297 Rocket 4.3 23:25:27 10° NNE 23:28:32 15° NE 23:30:03 13° ENE
Lacrosse 4 Rocket 2.2 23:24:40 10° NW 23:28:23 49° WNW 23:28:23 49° WNW
H-2A R/B 2.8 23:34:31 48° NNW 23:34:31 48° NNW 23:37:31 10° NNW
Cosmos 1092 Rocket 4.1 23:31:55 49° SW 23:33:27 67° W 23:39:35 10° N
ATLAS CENTAUR R/B 3.7 23:42:07 15° NE 23:42:07 15° NE 23:42:50 10° NE
USA 215 4.2 23:38:47 31° SW 23:39:26 32° SW 23:45:10 10° WNW
Cosmos 1627 Rocket 4.3 23:39:40 74° S 23:40:17 90° WSW 23:46:39 10° N
ATLAS 5 CENTAUR R/B 2.7 23:34:28 10° NW 23:40:27 55° WSW 23:40:57 54° SW
ISS -0.4 23:41:02 10° NW 23:42:30 12° NNW 23:43:58 10° N
Meteor 1-20 Rocket 4.3 23:47:17 67° ENE 23:47:17 67° ENE 23:52:31 10° NNE
Meteor 1-25 Rocket 4.2 23:48:01 78° NE 23:48:01 78° NE 23:53:35 10° N
Cosmos 1553 Rocket 4.3 23:44:23 10° N 23:50:37 54° E 23:50:37 54° E
